COSMOS 2251 DEB, 38054

Orbit data source: Space-Track

COSMOS 2251 DEB, 38054 is space debris in LEO originally from a launch on Wed, 16 Jun 1993 UTC launched from the Plesetsk Missile And Space Complex (PKMTR). The debris from Iridium 33, an American commercial communications satellite, has been tracked extensively since its accidental collision with the defunct Russian satellite Cosmos 2251 in 2009. This event, occurring at high speed in low Earth orbit (LEO), generated thousands of pieces of space debris, significantly increasing the risk of further collisions. The Iridium 33 debris cloud has impacted space traffic management and orbital debris mitigation strategies, making it a subject of ongoing study in space situational awareness.

Loading next visibility...
Identifier
38054, 1993-036BRL
Orbit
LEO
Country
Flag of CISCIS
Related business
Manufacturer
Unknown
Mission
Spacecraft
Bus & Motor
Unknown
Mass
Unknown
Launch date (UTC)
1993-06-16 (33 years ago)
Launch vehicle
Unknown
Launch site
Plesetsk Missile And Space Complex (PKMTR)
Object type
Payload
Rocket body
Debris
Shape & HBR
Unknown shape, 0.1 m
Radar Cross Section
Small (<0.1 m²)

Expand to show TLE details & history
Last TLE update: 12 hours ago

TLE from 12 hours ago
0 COSMOS 2251 DEB
1 38054U 93036BRL 26095.42653448  .00005771  00000-0  49057-2 0  9996
2 38054  73.9535  79.6842 0347690  35.0681 117.0266 13.63149027687282
Epoch: 2026-04-05T10:14Z
TLE epoch observation values (Epoch: 2026-04-05T10:14:12.579Z)
Latitude
23.44222°
Longitude
-94.72827°
Altitude
1,150.634 km
Speed
7.219 km/s
True Right ascension
16h 50m 13s
True Declination
23° 19' 25"
Sunlit
Object was in daylight at epoch
Visualization orbit readout
Latitude
Unknown
Longitude
Unknown
Altitude
Unknown
Speed
Unknown
Apparent Right ascension
Unknown
Apparent Declination
Unknown
Sunlit
N/A
Visualization observer readout
Local Sidereal Time
04:17:58
Azimuth
Unknown
Elevation
Unknown
Doppler factor
Unknown
Orbital elements
Apogee altitude
1,279.272 km
Perigee altitude
764.683 km
Semi-major axis
7,400.115 km
Eccentricity
0.03477
Inclination
73.9535°
RAAN
79.6842°
Arg. of periapsis
35.0681°
True anomaly
120.50482°
Mean anomaly
117.0266°
Eccentric anomaly
118.77276°
Mean motion
3.40946 °/min
Orbital period
105.59 mins
BSTAR
0.0049057

Documentation

Showing up to 5 results
|